This is the latest recevied weather packets stored in our database for station/object MIDVIL-WX. If no packets are shown the sender has not sent any weather packets the latest 10 day(s).
| Time | Temp. | Humidity | Pressure | Rain* | Wind** | Luminosity | Snow |
|---|---|---|---|---|---|---|---|
| 1778009442 | 12.78° C | 34% | 982.4 hPa | 0 mm | - | - | - |
| 1778008528 | 12.78° C | 34% | 982.4 hPa | 0 mm | - | - | - |
| 1778007652 | 12.78° C | 34% | 982.4 hPa | 0 mm | - | - | - |
| 1778006728 | 12.78° C | 36% | 983 hPa | 0 mm | - | - | - |
| 1778005850 | 12.78° C | 37% | 982.3 hPa | 0 mm | - | - | - |
| 1778004928 | 12.78° C | 37% | 982.3 hPa | 0 mm | - | - | - |
| 1778004057 | 13.33° C | 37% | 982.3 hPa | 0 mm | - | - | - |
| 1778003128 | 12.78° C | 33% | 981.6 hPa | 0 mm | - | - | - |
| 1778002244 | 12.78° C | 35% | 980.7 hPa | 0 mm | - | - | - |
| 1778001328 | 12.22° C | 35% | 980.7 hPa | 0 mm | - | - | - |
| 1778000454 | 12.22° C | 35% | 980.7 hPa | 0 mm | - | - | - |
| 1777999528 | 11.67° C | 41% | 981.6 hPa | 0 mm | - | - | - |
| 1777998647 | 11.67° C | 43% | 979.8 hPa | 0 mm | - | - | - |
| 1777997728 | 11.67° C | 43% | 979.8 hPa | 0 mm | - | - | - |
| 1777996858 | 11.11° C | 43% | 979.8 hPa | 0 mm | - | - | - |
| 1777995925 | 11.11° C | 45% | 981.6 hPa | 0 mm | - | - | - |
| 1777995049 | 10.56° C | 43% | 980.6 hPa | 0 mm | - | - | - |
| 1777994128 | 10.56° C | 43% | 980.5 hPa | 0 mm | - | - | - |
| 1777993261 | 10.56° C | 43% | 980.5 hPa | 0 mm | - | - | - |
| 1777992328 | 10.56° C | 58% | 980.6 hPa | 0 mm | - | - | - |
| 1777991447 | 10.56° C | 48% | 980.5 hPa | 0 mm | - | - | - |
| 1777990528 | 10.56° C | 48% | 980.4 hPa | 0 mm | - | - | - |
| 1777989661 | 10.56° C | 48% | 980.4 hPa | 0 mm | - | - | - |
| 1777988728 | 10.56° C | 59% | 980.4 hPa | 0 mm | - | - | - |
| 1777987847 | 10.56° C | 59% | 980.4 hPa | 0 mm | - | - | - |
* Rain latest hour (hover to see other rain measurements)
** Current wind speed in m/s (hover to see current wind gust speed)